Tracking 28520 objects as of 1-Mar-2024
HD Live streaming from Space Station
objects crossing your sky now

ARIANE 5 DEB (SYLDA)

Track ARIANE 5 DEB (SYLDA) now!
10-day predictions


NORAD ID: 39081
Int'l Code: 2013-006D
Perigee: 326.9 km
Apogee: 20,942.4 km
Inclination: 6.2 °
Period: 367.8 minutes
Semi major axis: 17005 km
RCS: 0.003 m2 (small)
Launch date: February 7, 2013
Source: France (FR)
Launch site: FRENCH GUIANA (FRGUI)

Note: This is SATELLITE DEBRIS
Your satellite tracking list
Your tracking list is empty




NASA's NSSDC Master Catalog

Two Line Element Set (TLE):
1 39081U 13006D   24060.57346193  .00020057  00000-0  77310-2 0  9995
2 39081   6.1744 285.5959 6061381 132.9361 297.0292  3.91483510128464
Source of the keplerian elements: AFSPC